Regional Weather Roundup
Issued by NWS Jackson, KY

Home | Current Version | Previous Version | Graphics & Text | Print | Product List | Glossary On
Versions: 1 2 3 4 5 6 7 8 9 10 11 12 13 14 15 16 17 18 19 20 21 22 23 24 25 26 27
000
ASUS43 KJKL 210210
RWRJKL

EAST KENTUCKY HOURLY WEATHER ROUNDUP
NATIONAL WEATHER SERVICE JACKSON KY
900 PM EST MON NOV 20 2017

NOTE: "FAIR" INDICATES FEW OR NO CLOUDS BELOW 12,000 FEET WITH
NO SIGNIFICANT WEATHER AND/OR OBSTRUCTIONS TO VISIBILITY.

* THESE REPORTS ARE NOT UNDER NWS QUALITY CONTROL AND MAY NOT
  REPORT WEATHER SUCH AS PRECIPITATION AND FOG.

KYZ079-080-083-085-087-088-110-112-115-119-120-210300
...EASTERN KENTUCKY...

CITY           SKY/WX    TMP DP  RH WIND       PRES   REMARKS
JACKSON        CLEAR     42  22  44 SW3       30.08F
LONDON         CLEAR     37  25  61 S3        30.10S
SOMERSET*      CLEAR     37  28  70 S3        30.11S
MONTICELLO*    CLEAR     35  25  66 E7        30.11F WCI  29
WILLIAMSBURG*  CLEAR     41  25  52 SE7       30.10F
MIDDLESBORO*   CLOUDY    36  28  72 CALM      30.14S
HARLAN APT*    CLOUDY    37  25  60 CALM      30.13S
PIKE CO APT*     N/A     44  22  41 S6        30.10S
BIG SANDY APT* CLOUDY    41  25  54 S6        30.10S
MOREHEAD APT*  CLEAR     39  21  48 SE5       30.09F
$$

KYZ035-036-041-042-044-050-067-078-099-210300
...CENTRAL KENTUCKY...

CITY           SKY/WX    TMP DP  RH WIND       PRES   REMARKS
MT STERLING*   CLEAR     34  27  75 S5        30.08F WCI  30
DANVILLE*      CLEAR     32  27  80 CALM      30.08S
LEXINGTON      CLEAR     39  23  52 S6        30.06F WCI  35
FRANKFORT      CLEAR     32  25  75 CALM      30.05F
LOUISVILLE     CLEAR     40  25  55 SE8       30.05F WCI  34
LEBANON*         N/A     37  23  56 S9        30.07F WCI  31
GLASGOW*       CLEAR     36  23  59 CALM      30.07F
BOWLING GREEN  CLEAR     36  25  64 CALM      30.07F
$$

KYZ091>093-OHZ055-061-077-WVZ005-015-034-035-042-210300
...SOUTHERN OHIO/WEST VIRGINIA...

CITY           SKY/WX    TMP DP  RH WIND       PRES   REMARKS
COVINGTON      PTCLDY    39  27  62 S10       30.02F WCI  32
COLUMBUS       PTCLDY    38  25  59 S6        30.04F WCI  33
DAYTON         PTCLDY    40  26  57 S14       30.01F WCI  32
WILMINGTON     CLOUDY    36  27  69 S12       30.01F WCI  28
HUNTINGTON     CLEAR     34  24  67 E5        30.08F WCI  30
CHARLESTON     CLOUDY    35  25  66 CALM      30.10F
PINEVILLE*       N/A     31  28  86 MISG      30.17S
BECKLEY        CLOUDY    40  19  43 SE8       30.10F WCI  34
BLUEFIELD      CLOUDY    41  17  38 S6        30.11F
LOGAN CO APT*    N/A     43  19  39 CALM      30.09F
$$

VAZ002-007-008-TNZ017-027-036-066-071-210300
...SOUTHWEST VIRGINIA/EAST TENNESSEE...

CITY           SKY/WX    TMP DP  RH WIND       PRES   REMARKS
WISE*          CLOUDY    37  18  44 SW6       30.12S WCI  33
JONESVILLE*      N/A     32  27  80 CALM      30.16S
ABINGDON*      CLOUDY    36  25  63 CALM      30.13F
BRISTOL        CLOUDY    32  25  75 CALM      30.14F
MORRISTOWN*    CLEAR     37  25  60 CALM      30.13S
SEVIERVILLE*   CLEAR     34  32  93 CALM      30.14S
KNOXVILLE      CLOUDY    39  32  76 CALM      30.13S
LAFOLLETTE*    CLEAR     32  28  86 CALM      30.17S
OAK RIDGE      CLOUDY    35  31  85 CALM      30.16S
CROSSVILLE     CLOUDY    38  23  55 CALM      30.12R
NASHVILLE      PTCLDY    40  28  62 S5        30.10R
$$

...KEY TO REMARKS...
VSB - VISIBILITY IN MILES
WCI - WIND CHILL INDEX
HX  - HEAT INDEX

$$




USA.gov is the U.S. government's official web portal to all federal, state and local government web resources and services.